TimeEST,TemperatureF,Dew PointF,Humidity,Sea Level PressureIn,VisibilityMPH,Wind Direction,Wind SpeedMPH,Gust SpeedMPH,PrecipitationIn,Events,Conditions,WindDirDegrees,DateUTC
12:53 AM,15.1,10.0,80,30.05,4.0,WNW,4.6,-,0.00,,Haze,300,2009-01-21 05:53:00
1:15 AM,15.8,10.4,79,29.99,2.5,West,5.8,-,0.00,Snow,Light Snow,280,2009-01-21 06:15:00
1:32 AM,15.8,10.4,79,29.99,4.0,West,3.5,-,0.00,Snow,Light Snow,270,2009-01-21 06:32:00
1:53 AM,14.0,9.0,80,30.06,8.0,West,6.9,-,0.00,,Overcast,280,2009-01-21 06:53:00
2:53 AM,14.0,8.1,77,30.07,9.0,WNW,5.8,-,N/A,,Overcast,290,2009-01-21 07:53:00
3:53 AM,12.9,8.1,81,30.09,8.0,WNW,6.9,-,N/A,,Overcast,300,2009-01-21 08:53:00
4:53 AM,12.9,8.1,81,30.09,3.0,WNW,3.5,-,N/A,,Haze,290,2009-01-21 09:53:00
5:06 AM,12.2,8.6,85,30.04,2.5,WNW,3.5,-,0.00,,Haze,300,2009-01-21 10:06:00
5:14 AM,12.2,8.6,85,30.04,3.0,WNW,4.6,-,0.00,,Haze,290,2009-01-21 10:14:00
5:30 AM,12.2,8.6,85,30.04,2.5,West,3.5,-,0.00,,Overcast,280,2009-01-21 10:30:00
5:40 AM,12.2,8.6,85,30.04,3.0,Calm,Calm,-,0.00,,Overcast,0,2009-01-21 10:40:00
5:53 AM,12.9,9.0,84,30.10,3.0,Calm,Calm,-,0.00,,Overcast,0,2009-01-21 10:53:00
6:47 AM,12.2,8.6,85,30.04,4.0,Variable,3.5,-,N/A,,Overcast,0,2009-01-21 11:47:00
6:53 AM,12.0,8.1,84,30.11,5.0,SSW,4.6,-,N/A,,Overcast,210,2009-01-21 11:53:00
7:18 AM,10.4,6.8,85,30.05,10.0,Variable,5.8,-,N/A,,Scattered Clouds,0,2009-01-21 12:18:00
7:33 AM,10.4,6.8,85,30.05,9.0,SW,5.8,-,N/A,,Mostly Cloudy,230,2009-01-21 12:33:00
7:53 AM,10.9,6.1,81,30.13,5.0,WSW,5.8,-,N/A,,Haze,240,2009-01-21 12:53:00
8:29 AM,10.4,6.8,85,30.08,2.0,Variable,3.5,-,N/A,,Haze,0,2009-01-21 13:29:00
8:53 AM,10.9,7.0,84,30.15,2.0,WSW,5.8,-,N/A,,Overcast,240,2009-01-21 13:53:00
9:06 AM,10.4,6.8,85,30.09,4.0,SW,5.8,-,N/A,,Haze,220,2009-01-21 14:06:00
9:53 AM,12.0,6.1,77,30.16,5.0,Variable,6.9,-,N/A,,Haze,0,2009-01-21 14:53:00
10:33 AM,14.0,6.8,73,30.10,2.5,Variable,5.8,-,N/A,,Haze,0,2009-01-21 15:33:00
10:45 AM,15.8,6.8,68,30.10,5.0,SW,8.1,17.3,N/A,,Haze,230,2009-01-21 15:45:00
10:53 AM,15.1,7.0,70,30.17,9.0,SW,10.4,16.1,N/A,,Overcast,230,2009-01-21 15:53:00
11:42 AM,15.8,6.8,68,30.09,10.0,SW,8.1,-,N/A,,Partly Cloudy,220,2009-01-21 16:42:00
11:53 AM,15.1,6.1,68,30.15,10.0,SW,8.1,-,N/A,,Partly Cloudy,220,2009-01-21 16:53:00
12:53 PM,18.0,6.1,60,30.12,10.0,Variable,4.6,-,N/A,,Clear,0,2009-01-21 17:53:00
1:53 PM,19.0,5.0,54,30.10,10.0,SW,9.2,-,N/A,,Clear,230,2009-01-21 18:53:00
2:53 PM,19.9,3.9,50,30.10,10.0,SW,6.9,-,N/A,,Clear,220,2009-01-21 19:53:00
3:53 PM,21.0,3.9,48,30.10,10.0,SSW,9.2,-,N/A,,Clear,200,2009-01-21 20:53:00
4:53 PM,21.0,5.0,50,30.10,10.0,SW,12.7,-,N/A,,Scattered Clouds,230,2009-01-21 21:53:00
5:53 PM,21.0,6.1,53,30.11,10.0,South,9.2,-,N/A,,Clear,190,2009-01-21 22:53:00
6:53 PM,19.9,5.0,52,30.11,10.0,SSW,5.8,-,N/A,,Clear,210,2009-01-21 23:53:00
7:53 PM,19.0,5.0,54,30.11,10.0,SSW,4.6,-,N/A,,Clear,200,2009-01-22 00:53:00
8:53 PM,19.0,5.0,54,30.11,10.0,SSW,9.2,-,N/A,,Clear,200,2009-01-22 01:53:00
9:53 PM,18.0,6.1,60,30.11,10.0,South,4.6,-,N/A,,Clear,190,2009-01-22 02:53:00
10:53 PM,18.0,7.0,62,30.10,10.0,SSW,11.5,-,N/A,,Clear,200,2009-01-22 03:53:00
11:53 PM,19.0,7.0,59,30.10,10.0,South,4.6,-,N/A,,Clear,190,2009-01-22 04:53:00